When you browse on this site, cookies collect data to enhance your experience and personalize the content and advertising you see.
Visit our Privacy Policy to learn more. By continuing to use the site, you agree to this use of cookies and data.
  • In Schweiz
  • Länderverzeichnis
  • Für 7 Tage
  • Wassertemperatur
  • Wetterkarte
  • Widgets
  • user-avatar
    Anmelden

    Stündliche Wetter Polotsk

    Heute, 22 Februar, Samstag

    Zeit Temperatur Niederschläge Wind Luftdruck Luftfeuchtigkeit
    00:00 -1°C° 0 mm 4 m/S 749 mmHg 85%
    01:00 -1°C° 0 mm 4 m/S 749 mmHg 89%
    02:00 -1°C° 0 mm 4 m/S 749 mmHg 92%
    03:00 -1°C° 0 mm 4 m/S 749 mmHg 92%
    04:00 -1°C° 0 mm 4 m/S 749 mmHg 92%
    05:00 -1°C° 0 mm 4 m/S 749 mmHg 92%
    06:00 -1°C° 0 mm 4 m/S 750 mmHg 90%
    07:00 -1°C° 0 mm 4 m/S 750 mmHg 88%
    08:00 -1°C° 0 mm 5 m/S 750 mmHg 86%
    09:00 0°C° 0 mm 5 m/S 749 mmHg 83%
    10:00 +1°C° 0 mm 5 m/S 749 mmHg 81%
    11:00 +1°C° 0 mm 6 m/S 748 mmHg 78%
    12:00 +2°C° 0 mm 6 m/S 748 mmHg 73%
    13:00 +3°C° 0 mm 7 m/S 747 mmHg 68%
    14:00 +2°C° 0 mm 8 m/S 747 mmHg 63%
    15:00 +2°C° 0 mm 8 m/S 745 mmHg 64%
    16:00 +2°C° 0 mm 8 m/S 744 mmHg 64%
    17:00 +1°C° 0 mm 8 m/S 743 mmHg 64%
    18:00 +1°C° 0.2 mm 9 m/S 742 mmHg 70%
    19:00 +1°C° 0.2 mm 9 m/S 741 mmHg 76%
    20:00 0°C° 0.2 mm 10 m/S 739 mmHg 82%
    21:00 0°C° 0.3 mm 10 m/S 738 mmHg 84%
    22:00 0°C° 0.3 mm 10 m/S 737 mmHg 87%
    23:00 0°C° 0.3 mm 9 m/S 736 mmHg 89%

    Morgen, 23 Februar, Sonntag

    Zeit Temperatur Niederschläge Wind Luftdruck Luftfeuchtigkeit
    00:00 +1°C° 0.5 mm 9 m/S 735 mmHg 87%
    01:00 +1°C° 0.5 mm 9 m/S 735 mmHg 85%
    02:00 +2°C° 0.5 mm 9 m/S 734 mmHg 83%
    03:00 +1°C° 0.3 mm 8 m/S 734 mmHg 80%
    04:00 +2°C° 0.3 mm 7 m/S 733 mmHg 77%
    05:00 0°C° 0.3 mm 7 m/S 733 mmHg 74%
    06:00 0°C° 0 mm 7 m/S 733 mmHg 75%
    07:00 -1°C° 0 mm 6 m/S 734 mmHg 76%
    08:00 -1°C° 0 mm 6 m/S 734 mmHg 76%
    09:00 -1°C° 0 mm 7 m/S 734 mmHg 73%
    10:00 0°C° 0 mm 7 m/S 734 mmHg 70%
    11:00 0°C° 0 mm 8 m/S 734 mmHg 66%
    12:00 0°C° 0.1 mm 8 m/S 734 mmHg 68%
    13:00 +1°C° 0.1 mm 8 m/S 734 mmHg 70%
    14:00 +1°C° 0.1 mm 8 m/S 734 mmHg 72%
    15:00 0°C° 0.1 mm 8 m/S 733 mmHg 75%
    16:00 0°C° 0.1 mm 8 m/S 733 mmHg 79%
    17:00 -1°C° 0.1 mm 8 m/S 732 mmHg 82%
    18:00 -1°C° 0 mm 8 m/S 732 mmHg 83%
    19:00 -1°C° 0 mm 8 m/S 732 mmHg 83%
    20:00 -1°C° 0 mm 7 m/S 732 mmHg 83%
    21:00 -1°C° 0 mm 7 m/S 732 mmHg 83%
    22:00 -1°C° 0 mm 6 m/S 731 mmHg 84%
    23:00 -1°C° 0 mm 6 m/S 731 mmHg 84%

    übermorgen, 24 Februar, Montag

    Zeit Temperatur Niederschläge Wind Luftdruck Luftfeuchtigkeit
    00:00 -1°C° 0 mm 5 m/S 731 mmHg 85%
    01:00 -1°C° 0 mm 5 m/S 731 mmHg 87%
    02:00 -1°C° 0 mm 4 m/S 731 mmHg 88%
    03:00 -1°C° 0 mm 4 m/S 731 mmHg 89%
    04:00 -1°C° 0 mm 4 m/S 731 mmHg 90%
    05:00 -1°C° 0 mm 4 m/S 731 mmHg 92%
    06:00 -1°C° 0 mm 4 m/S 732 mmHg 87%
    07:00 -1°C° 0 mm 5 m/S 733 mmHg 83%
    08:00 0°C° 0 mm 5 m/S 734 mmHg 78%
    09:00 -1°C° 0 mm 6 m/S 735 mmHg 72%
    10:00 +1°C° 0 mm 6 m/S 735 mmHg 66%
    11:00 0°C° 0 mm 7 m/S 736 mmHg 59%
    12:00 0°C° 0 mm 7 m/S 737 mmHg 57%
    13:00 0°C° 0 mm 7 m/S 738 mmHg 54%
    14:00 0°C° 0 mm 7 m/S 738 mmHg 52%
    15:00 0°C° 0 mm 7 m/S 739 mmHg 54%
    16:00 -1°C° 0 mm 6 m/S 739 mmHg 56%
    17:00 0°C° 0 mm 5 m/S 740 mmHg 59%
    18:00 -1°C° 0 mm 5 m/S 740 mmHg 62%
    19:00 -2°C° 0 mm 4 m/S 741 mmHg 66%
    20:00 -2°C° 0 mm 4 m/S 742 mmHg 69%
    21:00 -2°C° 0 mm 4 m/S 742 mmHg 70%
    22:00 -1°C° 0 mm 3 m/S 742 mmHg 71%
    23:00 -1°C° 0 mm 3 m/S 742 mmHg 72%

    25 Februar, Dienstag

    Zeit Temperatur Niederschläge Wind Luftdruck Luftfeuchtigkeit
    00:00 -2°C° 0 mm 3 m/S 742 mmHg 73%
    01:00 -2°C° 0 mm 3 m/S 741 mmHg 73%
    02:00 -2°C° 0 mm 2 m/S 741 mmHg 74%
    03:00 -2°C° 0 mm 2 m/S 741 mmHg 76%
    04:00 -2°C° 0 mm 2 m/S 740 mmHg 78%
    05:00 -2°C° 0 mm 2 m/S 740 mmHg 79%
    06:00 -2°C° 0.1 mm 3 m/S 739 mmHg 83%
    07:00 -1°C° 0.1 mm 3 m/S 739 mmHg 87%
    08:00 -2°C° 0.1 mm 4 m/S 738 mmHg 91%
    09:00 -2°C° 0.1 mm 4 m/S 737 mmHg 91%
    10:00 -1°C° 0.1 mm 5 m/S 737 mmHg 91%
    11:00 -1°C° 0.1 mm 5 m/S 736 mmHg 92%
    12:00 -1°C° 0.3 mm 5 m/S 735 mmHg 93%
    13:00 -1°C° 0.3 mm 5 m/S 734 mmHg 94%
    14:00 -1°C° 0.3 mm 5 m/S 734 mmHg 95%
    15:00 -1°C° 0.2 mm 5 m/S 733 mmHg 95%
    16:00 0°C° 0.2 mm 4 m/S 732 mmHg 96%
    17:00 0°C° 0.2 mm 4 m/S 732 mmHg 96%
    18:00 +1°C° 0.1 mm 3 m/S 731 mmHg 96%
    19:00 +2°C° 0.1 mm 3 m/S 731 mmHg 96%
    20:00 +2°C° 0.1 mm 3 m/S 731 mmHg 96%
    21:00 +1°C° 0.1 mm 3 m/S 731 mmHg 96%
    22:00 +1°C° 0.1 mm 3 m/S 731 mmHg 96%
    23:00 +1°C° 0.1 mm 3 m/S 730 mmHg 96%

    26 Februar, Mittwoch

    Zeit Temperatur Niederschläge Wind Luftdruck Luftfeuchtigkeit
    00:00 +2°C° 0.1 mm 2 m/S 730 mmHg 96%
    01:00 +2°C° 0.1 mm 2 m/S 729 mmHg 97%
    02:00 +2°C° 0.1 mm 2 m/S 729 mmHg 97%
    03:00 0°C° 0.5 mm 3 m/S 729 mmHg 96%
    04:00 -1°C° 0.5 mm 4 m/S 729 mmHg 94%
    05:00 -1°C° 0.5 mm 5 m/S 728 mmHg 93%
    06:00 -1°C° 0 mm 5 m/S 729 mmHg 90%
    07:00 -1°C° 0 mm 5 m/S 729 mmHg 86%
    08:00 -1°C° 0 mm 5 m/S 729 mmHg 83%
    09:00 -1°C° 0 mm 5 m/S 729 mmHg 81%
    10:00 -1°C° 0 mm 6 m/S 730 mmHg 79%
    11:00 -1°C° 0 mm 6 m/S 730 mmHg 77%
    12:00 -1°C° 0 mm 6 m/S 730 mmHg 76%
    13:00 +1°C° 0 mm 6 m/S 730 mmHg 74%
    14:00 +1°C° 0 mm 6 m/S 731 mmHg 72%
    15:00 +1°C° 0 mm 5 m/S 731 mmHg 72%
    16:00 +1°C° 0 mm 4 m/S 731 mmHg 72%
    17:00 +2°C° 0 mm 3 m/S 731 mmHg 72%
    18:00 +1°C° 0 mm 3 m/S 732 mmHg 76%
    19:00 +1°C° 0 mm 2 m/S 732 mmHg 80%
    20:00 -1°C° 0 mm 2 m/S 732 mmHg 83%
    21:00 -1°C° 0 mm 2 m/S 732 mmHg 85%
    22:00 -1°C° 0 mm 2 m/S 732 mmHg 87%
    23:00 -1°C° 0 mm 2 m/S 732 mmHg 89%

    27 Februar, Donnerstag

    Zeit Temperatur Niederschläge Wind Luftdruck Luftfeuchtigkeit
    00:00 -1°C° 0 mm 2 m/S 732 mmHg 89%
    01:00 +1°C° 0 mm 2 m/S 731 mmHg 89%
    02:00 +1°C° 0 mm 2 m/S 731 mmHg 89%
    03:00 0°C° 0 mm 3 m/S 731 mmHg 89%
    04:00 0°C° 0 mm 3 m/S 731 mmHg 88%
    05:00 -1°C° 0 mm 4 m/S 730 mmHg 88%
    06:00 -1°C° 0.5 mm 4 m/S 730 mmHg 91%
    07:00 -1°C° 0.5 mm 4 m/S 730 mmHg 94%
    08:00 0°C° 0.5 mm 3 m/S 730 mmHg 97%
    09:00 0°C° 0.3 mm 3 m/S 730 mmHg 93%
    10:00 +1°C° 0.3 mm 3 m/S 730 mmHg 89%
    11:00 +1°C° 0.3 mm 3 m/S 730 mmHg 85%
    12:00 +1°C° 0 mm 3 m/S 730 mmHg 82%
    13:00 +1°C° 0 mm 3 m/S 730 mmHg 79%
    14:00 +1°C° 0 mm 4 m/S 730 mmHg 75%
    15:00 0°C° 0.1 mm 4 m/S 731 mmHg 80%
    16:00 0°C° 0.1 mm 4 m/S 731 mmHg 85%
    17:00 -1°C° 0.1 mm 5 m/S 732 mmHg 90%
    18:00 -1°C° 0 mm 5 m/S 732 mmHg 89%
    19:00 -2°C° 0 mm 5 m/S 733 mmHg 88%
    20:00 -2°C° 0 mm 5 m/S 734 mmHg 87%
    21:00 -4°C° 0.1 mm 5 m/S 735 mmHg 87%
    22:00 -5°C° 0.1 mm 5 m/S 735 mmHg 86%
    23:00 -6°C° 0.1 mm 5 m/S 736 mmHg 85%
    Mehr zeigen